Time_in_sec,Latitude,Longitude,Altitude,Nbsat,valid_data
1312471703.80493164,47.37615967,8.55023003,563.06024170,4,1
1312471788.74328351,47.37622452,8.55025101,571.42926025,2,1
1312471788.79644346,47.37622452,8.55025101,571.41363525,2,1
1312471788.84329271,47.37622452,8.55025101,571.19470215,2,1
1312471788.89529657,47.37622452,8.55025101,571.17840576,2,1
1312471788.94328809,47.37622452,8.55025101,571.16198730,2,1
1312471788.99528217,47.37622452,8.55025101,571.14562988,2,1
1312471789.04328752,47.37622452,8.55025101,571.12915039,2,1
1312471789.09532547,47.37622070,8.55025196,570.89416504,2,1
1312471789.14328194,47.37622070,8.55025196,570.87695312,2,1
1312471789.19532514,47.37622070,8.55025196,570.85961914,2,1
1312471789.24442506,47.37622070,8.55025196,570.84228516,2,1
1312471789.29641819,47.37622070,8.55025196,570.82495117,2,1
1312471789.34338570,47.37622070,8.55025196,570.60504150,2,1
1312471789.39535737,47.37622070,8.55025196,570.58697510,2,1
1312471789.44331980,47.37622070,8.55025196,570.56884766,2,1
1312471789.49529171,47.37622070,8.55025196,570.55072021,2,1
1312471789.54330206,47.37622070,8.55025196,570.53253174,2,1
1312471789.59641790,47.37622070,8.55025196,570.32031250,2,1
1312471789.64330006,47.37622070,8.55025196,570.30145264,2,1
1312471789.69541740,47.37622070,8.55025196,570.28259277,2,1
1312471789.74427700,47.37622070,8.55025196,570.26367188,2,1
1312471789.79529881,47.37622070,8.55025196,570.24468994,2,1
1312471789.84341836,47.37622070,8.55025291,569.99060059,2,1
1312471789.89530969,47.37622070,8.55025291,569.97082520,2,1
1312471789.94331264,47.37622070,8.55025291,569.95098877,2,1
1312471789.99643254,47.37622070,8.55025291,569.93115234,2,1
1312471790.04332542,47.37622070,8.55025291,569.91125488,2,1
1312471790.09542274,47.37622070,8.55025291,569.62500000,2,1
1312471790.14332914,47.37622070,8.55025291,569.60412598,2,1
1312471790.19266510,47.37622070,8.55025291,569.58331299,2,1
1312471790.24441504,47.37622070,8.55025291,569.56237793,2,1
1312471790.29531217,47.37622070,8.55025291,569.54144287,2,1
1312471790.34329677,47.37622070,8.55025387,569.25323486,2,1
1312471790.39526820,47.37622070,8.55025387,569.23138428,2,1
1312471790.44429851,47.37622070,8.55025387,569.20953369,2,1
1312471790.49539089,47.37622070,8.55025387,569.18762207,2,1
1312471790.54328513,47.37622070,8.55025387,569.16571045,2,1
1312471790.59639001,47.37622070,8.55025387,568.86413574,2,1
1312471790.64434552,47.37622070,8.55025387,568.84130859,2,1
1312471790.69629979,47.37622070,8.55025387,568.81842041,2,1
1312471790.74437141,47.37622070,8.55025387,568.79553223,2,1
1312471790.79641938,47.37622070,8.55025482,568.77258301,2,1
1312471790.84327817,47.37622070,8.55025387,568.44378662,2,1
1312471790.89630985,47.37622070,8.55025387,568.41979980,2,1
1312471790.94442749,47.37622070,8.55025387,568.39581299,2,1
1312471790.99542761,47.37622070,8.55025387,568.37176514,2,1
1312471791.04329634,47.37622070,8.55025482,568.34771729,2,1
1312471791.09626794,47.37622070,8.55025291,568.00720215,2,1
1312471791.14359212,47.37622070,8.55025387,567.98205566,2,1
1312471791.19594741,47.37622070,8.55025387,567.95684814,2,1
1312471791.24328923,47.37622070,8.55025387,567.93164062,2,1
1312471791.29634190,47.37622070,8.55025387,567.90631104,3,1
1312471791.34332132,47.37622070,8.55025291,567.54797363,3,1
1312471791.39642668,47.37622070,8.55025291,567.52160645,3,1
1312471791.44431138,47.37622070,8.55025291,567.49511719,3,1
1312471791.49529409,47.37622070,8.55025291,567.46862793,3,1
1312471791.54331374,47.37622070,8.55025291,567.44213867,3,1
1312471791.59641910,47.37622070,8.55025291,567.06994629,3,1
1312471791.64331937,47.37622070,8.55025291,567.04229736,3,1
1312471791.69641614,47.37622070,8.55025291,567.01464844,3,1
1312471791.74339914,47.37622070,8.55025291,566.98693848,3,1
1312471791.79642868,47.37622070,8.55025291,566.95916748,3,1
1312471791.84341049,47.37622070,8.55025291,566.57958984,3,1
1312471791.89526200,47.37622070,8.55025291,566.55072021,3,1
1312471791.94341183,47.37622070,8.55025291,566.52178955,3,1
1312471791.99540162,47.37622070,8.55025291,566.49279785,3,1
1312471792.04433274,47.37622070,8.55025291,566.46380615,3,1
1312471792.08443499,47.37622070,8.55025196,566.06225586,3,1
1312471792.14338279,47.37622070,8.55025196,566.03802490,3,1
1312471792.19642472,47.37622070,8.55025196,566.00164795,3,1
1312471792.23545885,47.37622070,8.55025196,565.97137451,3,1
1312471792.29531074,47.37622070,8.55025196,565.94708252,3,1
1312471792.33661103,47.37622070,8.55025196,565.54449463,3,1
1312471792.38842630,47.37622070,8.55025196,565.51928711,3,1
1312471792.43666434,47.37622070,8.55025196,565.48773193,3,1
1312471792.48816085,47.37622070,8.55025196,565.45617676,3,1
1312471792.53540969,47.37622070,8.55025196,565.42456055,3,1
1312471792.59642577,47.37622070,8.55025196,565.00213623,3,1
1312471792.63632035,47.37622070,8.55025196,564.96264648,3,1
1312471792.68740606,47.37622070,8.55025196,564.93634033,3,1
1312471792.73656273,47.37622070,8.55025196,564.90338135,3,1
1312471792.78442550,47.37622070,8.55025196,564.87036133,3,1
1312471792.83616757,47.37622070,8.55025101,564.43365479,3,1
1312471792.88742042,47.37622070,8.55025101,564.39929199,3,1
1312471792.93666363,47.37622070,8.55025101,564.36492920,3,1
1312471792.98741722,47.37622070,8.55025101,564.33056641,3,1
1312471793.03682685,47.37622070,8.55025101,564.29608154,3,1
1312471793.08729267,47.37622070,8.55025101,563.83715820,3,1
1312471793.14329171,47.37622070,8.55025101,563.80133057,3,1
1312471793.18441868,47.37622070,8.55025101,563.75823975,3,1
1312471793.23534799,47.37622070,8.55025101,563.72943115,3,1
1312471793.28433824,47.37622070,8.55025101,563.69348145,3,1
1312471793.33629966,47.37622452,8.55025101,563.23724365,3,1
1312471793.38742113,47.37622452,8.55025101,563.19995117,3,1
1312471793.43639326,47.37622452,8.55025101,563.16265869,3,1
1312471793.48429585,47.37622452,8.55025101,563.12530518,3,1
1312471793.53631496,47.37622452,8.55025101,563.08795166,3,1
1312471793.58440828,47.37622452,8.55025101,562.62115479,3,1
1312471793.63607383,47.37622452,8.55025101,562.58239746,3,1
1312471793.68430948,47.37622452,8.55025101,562.54357910,3,1
1312471793.73559570,47.37622452,8.55025101,562.50476074,3,1
1312471793.78726673,47.37622452,8.55025101,562.46582031,3,1
1312471793.83629799,47.37622452,8.55025005,561.99945068,3,1
1312471793.88438892,47.37622452,8.55025005,561.95916748,3,1
1312471793.93702316,47.37622452,8.55025005,561.91882324,3,1
1312471793.98441839,47.37622452,8.55025005,561.87841797,3,1
1312471794.03570938,47.37622452,8.55025005,561.83801270,3,1
1312471794.08441997,47.37622833,8.55025005,561.36938477,3,1
1312471794.14442468,47.37622833,8.55025005,561.32763672,3,1
1312471794.18443370,47.37622833,8.55025005,561.27752686,3,1
1312471794.23631024,47.37622833,8.55025005,561.24407959,3,1
1312471794.28739452,47.37622833,8.55025005,561.20220947,3,1
1312471794.33632088,47.37622833,8.55024910,560.71667480,3,1
1312471794.38442373,47.37622833,8.55024910,560.67333984,3,1
1312471794.43632650,47.37622833,8.55024815,560.63000488,3,1
1312471794.48443246,47.37622833,8.55024815,560.58654785,3,1
1312471794.53601670,47.37622833,8.55024815,560.54315186,3,1
1312471794.58441901,47.37622833,8.55024910,560.04888916,3,1
1312471794.63635397,47.37622833,8.55024910,560.00402832,3,1
1312471794.68441844,47.37622833,8.55024910,559.95916748,3,1
1312471794.73632264,47.37622833,8.55024910,559.91418457,3,1
1312471794.78443241,47.37622833,8.55024910,559.86926270,3,1
1312471794.83639479,47.37622833,8.55024910,559.36828613,3,1
1312471794.88429666,47.37622833,8.55024910,559.32183838,3,1
1312471794.93631935,47.37622833,8.55024910,559.27532959,3,1
1312471794.98434711,47.37622833,8.55024910,559.22882080,3,1
1312471795.03637290,47.37622833,8.55024910,559.18218994,3,1
1312471795.08442879,47.37622833,8.55024719,558.68463135,3,1
1312471795.13627982,47.37622833,8.55024719,558.63659668,3,1
1312471795.18474746,47.37622833,8.55024719,558.58850098,3,1
1312471795.23625278,47.37622833,8.55024719,558.54034424,3,1
1312471795.28475833,47.37622833,8.55024719,558.49218750,3,1
1312471795.33632994,47.37623215,8.55024719,557.99273682,3,1
1312471795.38428760,47.37623215,8.55024719,557.94311523,3,1
1312471795.43672752,47.37623215,8.55024719,557.89349365,3,1
1312471795.48462558,47.37623215,8.55024719,557.84381104,3,1
1312471795.53677630,47.37623215,8.55024719,557.79406738,3,1
1312471795.58442521,47.37622833,8.55024719,557.28527832,3,1
1312471795.63529348,47.37622833,8.55024719,557.23406982,3,1
1312471795.68442678,47.37622833,8.55024719,557.18280029,3,1
1312471795.73541522,47.37622833,8.55024719,557.13146973,3,1
1312471795.78442192,47.37622833,8.55024719,557.08013916,3,1
1312471795.83629537,47.37623215,8.55024529,556.57641602,3,1
1312471795.88445187,47.37623215,8.55024529,556.52349854,3,1
1312471795.93531370,47.37623215,8.55024529,556.47064209,3,1
1312471795.98446512,47.37623215,8.55024529,556.41772461,3,1
1312471796.03645158,47.37623215,8.55024529,556.36474609,3,1
1312471796.08845305,47.37623215,8.55024529,555.85656738,3,1
1312471796.13541746,47.37623215,8.55024529,555.80218506,3,1
1312471796.18445635,47.37623215,8.55024529,555.74774170,3,1
1312471796.23630595,47.37623215,8.55024529,555.69323730,3,1
1312471796.28444648,47.37623215,8.55024529,555.63873291,3,1
1312471796.33543110,47.37623215,8.55024338,555.12133789,3,1
1312471796.38440967,47.37623215,8.55024338,555.06524658,3,1
1312471796.43549418,47.37623215,8.55024338,555.00915527,3,1
1312471796.48441267,47.37623215,8.55024338,554.95300293,3,1
1312471796.53642941,47.37623215,8.55024338,554.89685059,3,1
1312471796.58442068,47.37623215,8.55024433,554.40026855,3,1
1312471796.63637519,47.37623215,8.55024433,554.34271240,3,1
1312471796.68529248,47.37623215,8.55024433,554.28509521,3,1
1312471796.73628545,47.37623215,8.55024433,554.22741699,3,1
1312471796.78440857,47.37623215,8.55024433,554.16973877,3,1
1312471796.83654785,47.37623215,8.55024433,553.66149902,3,1
1312471796.88529944,47.37623215,8.55024433,553.60235596,3,1
1312471796.93532848,47.37623215,8.55024433,553.54315186,3,1
1312471796.98515844,47.37623215,8.55024433,553.48388672,3,1
1312471797.03639960,47.37623215,8.55024433,553.42462158,3,1
1312471797.08442712,47.37623215,8.55024338,552.93218994,3,1
1312471797.13634157,47.37623215,8.55024338,552.87152100,3,1
1312471797.18443012,47.37623215,8.55024338,552.81085205,3,1
1312471797.23654699,47.37623215,8.55024338,552.75012207,3,1
1312471797.28442264,47.37623215,8.55024338,552.68933105,3,1
1312471797.33640265,47.37623596,8.55024338,552.21508789,3,1
1312471797.38428974,47.37623596,8.55024338,552.15301514,3,1
1312471797.43661332,47.37623596,8.55024338,552.09094238,3,1
1312471797.48442888,47.37623596,8.55024338,552.02880859,3,1
1312471797.53669548,47.37623596,8.55024338,551.96667480,3,1
1312471797.58442354,47.37623596,8.55024147,551.49548340,3,1
1312471797.63643932,47.37623596,8.55024147,551.43194580,3,1
1312471797.68842936,47.37623596,8.55024147,551.36846924,3,1
1312471797.73668551,47.37623596,8.55024147,551.30493164,3,1
1312471797.78802586,47.37623596,8.55024147,551.24133301,3,1
1312471797.83676386,47.37623596,8.55024052,550.77856445,3,1
1312471797.88813090,47.37623596,8.55024052,550.71362305,3,1
1312471797.93628812,47.37623596,8.55024052,550.64868164,3,1
1312471797.98731208,47.37623596,8.55024052,550.58374023,3,1
1312471798.03536010,47.37623596,8.55024052,550.51867676,3,1
1312471798.08389449,47.37623596,8.55023956,550.06671143,3,1
1312471798.13627505,47.37623596,8.55023956,550.00042725,3,1
1312471798.18412924,47.37623596,8.55023956,549.93408203,3,1
1312471798.23677468,47.37623596,8.55023956,549.86773682,3,1
1312471798.28438282,47.37623596,8.55023956,549.80139160,3,1
1312471798.33630824,47.37623596,8.55023956,549.34875488,3,1
1312471798.38445568,47.37623596,8.55023861,549.28112793,3,1
1312471798.43623781,47.37623596,8.55023861,549.21343994,3,1
1312471798.48442674,47.37623596,8.55023861,549.14575195,3,1
1312471798.53631282,47.37623596,8.55023861,549.07800293,3,1
1312471798.58427143,47.37623978,8.55023766,548.64807129,3,1
1312471798.63533759,47.37623978,8.55023766,548.57916260,3,1
1312471798.68443203,47.37623978,8.55023766,548.51019287,3,1
1312471798.73661280,47.37623978,8.55023766,548.44122314,3,1
1312471798.78428292,47.37623978,8.55023766,548.37219238,3,1
1312471798.83662224,47.37623978,8.55023575,547.95971680,3,1
1312471798.88432097,47.37623978,8.55023575,547.88958740,3,1
1312471798.93533444,47.37623978,8.55023575,547.81939697,3,1
1312471798.98844790,47.37623978,8.55023575,547.74920654,3,1
1312471799.03649569,47.37623978,8.55023575,547.67895508,3,1
1312471799.08444595,47.37623978,8.55023479,547.28265381,3,1
1312471799.13652802,47.37623978,8.55023479,547.21136475,3,1
1312471799.18433738,47.37623978,8.55023479,547.14007568,3,1
1312471799.23660588,47.37623978,8.55023479,547.06872559,3,1
1312471799.28441954,47.37623978,8.55023479,546.99737549,3,1
1312471799.33638978,47.37623978,8.55023289,546.63427734,3,1
1312471799.38445473,47.37623978,8.55023289,546.56201172,3,1
1312471799.43643475,47.37623978,8.55023289,546.48968506,3,1
1312471799.48431492,47.37623978,8.55023289,546.41735840,3,1
1312471799.53559732,47.37623978,8.55023289,546.34503174,3,1
1312471799.59641719,47.37623978,8.55023193,545.99340820,3,1
1312471799.63667369,47.37623978,8.55023193,545.90557861,3,1
1312471799.68433237,47.37623978,8.55023193,545.84698486,3,1
1312471799.73557162,47.37623978,8.55023193,545.77368164,3,1
1312471799.78435516,47.37623978,8.55023193,545.70031738,3,1
1312471799.83664060,47.37623978,8.55023098,545.36572266,3,1
1312471799.88735557,47.37623978,8.55023098,545.29156494,3,1
1312471799.93634915,47.37623978,8.55023098,545.21740723,3,1
1312471799.98441982,47.37623978,8.55023098,545.14312744,3,1
1312471800.03659606,47.37623978,8.55023098,545.06890869,3,1
1312471800.08433247,47.37623978,8.55023003,544.73071289,3,1
1312471800.13930702,47.37623978,8.55023003,544.65557861,3,1
1312471800.18792772,47.37623978,8.55023003,544.58044434,3,1
1312471800.23629093,47.37623978,8.55023003,544.50531006,3,1
1312471800.28442144,47.37623978,8.55023003,544.43011475,3,1
1312471800.33636975,47.37624359,8.55022907,544.10125732,3,1
1312471800.38441873,47.37624359,8.55022907,544.02526855,3,1
1312471800.44332743,47.37624359,8.55022812,543.94921875,3,1
1312471800.49532986,47.37624359,8.55022812,543.85797119,3,1
1312471800.53574061,47.37624359,8.55022812,543.78186035,3,1
1312471800.58442783,47.37624359,8.55022717,543.47436523,3,1
1312471800.64359784,47.37624359,8.55022717,543.39746094,3,1
1312471800.68442535,47.37624359,8.55022717,543.30517578,3,1
1312471800.74334264,47.37624359,8.55022717,543.24365234,3,1
1312471800.78443742,47.37624359,8.55022621,543.15124512,3,1
1312471800.84330010,47.37624359,8.55022621,542.85150146,3,1
1312471800.88442039,47.37624359,8.55022621,542.75817871,3,1
1312471800.93667459,47.37624359,8.55022621,542.69598389,3,1
1312471800.98441577,47.37624359,8.55022526,542.61816406,3,1
1312471801.03676081,47.37624359,8.55022526,542.54028320,3,1
1312471801.08442545,47.37624359,8.55022526,542.23596191,3,1
1312471801.13626146,47.37624359,8.55022526,542.15734863,3,1
1312471801.18844295,47.37624359,8.55022430,542.07867432,3,1
1312471801.23577619,47.37624359,8.55022430,542.00000000,3,1
1312471801.29540658,47.37624359,8.55022430,541.92126465,3,1
1312471801.34442782,47.37624359,8.55022430,541.62023926,3,1
1312471801.38435435,47.37624359,8.55022430,541.54089355,3,1
1312471801.44436741,47.37624359,8.55022430,541.47735596,3,1
1312471801.48443151,47.37624359,8.55022335,541.38201904,3,1
1312471801.53631973,47.37624359,8.55022335,541.31842041,3,1
1312471801.58441973,47.37624359,8.55022240,541.05975342,3,1
1312471801.64450741,47.37624359,8.55022240,540.97967529,3,1
1312471801.68442512,47.37624359,8.55022240,540.88360596,3,1
1312471801.74439883,47.37624359,8.55022144,540.81951904,3,1
1312471801.78432751,47.37624359,8.55022144,540.72332764,3,1
1312471801.84433413,47.37624359,8.55022144,540.50219727,3,1
1312471801.88432074,47.37624359,8.55022144,540.40545654,3,1
1312471801.93673420,47.37624359,8.55022144,540.34094238,3,1
1312471801.98362160,47.37624359,8.55022144,540.26025391,3,1
1312471802.04334235,47.37624359,8.55022144,540.17950439,3,1
1312471802.09642887,47.37624359,8.55022049,539.94665527,3,1
1312471802.14028907,47.37624359,8.55022049,539.86553955,3,1
1312471802.18743825,47.37624359,8.55022049,539.80065918,3,1
1312471802.23630643,47.37624359,8.55022049,539.71942139,3,1
1312471802.28842640,47.37624359,8.55022049,539.63824463,3,1
1312471802.33630705,47.37624359,8.55022049,539.44390869,3,1
1312471802.38345838,47.37624359,8.55021954,539.36230469,3,1
1312471802.43632269,47.37624359,8.55021954,539.28070068,3,1
1312471802.48449993,47.37624359,8.55021954,539.19903564,3,1
1312471802.53544831,47.37624359,8.55021954,539.11737061,3,1
1312471802.58464670,47.37624359,8.55021954,538.95989990,3,1
1312471802.64425015,47.37624359,8.55021954,538.87799072,3,1
1312471802.68335867,47.37624359,8.55021954,538.77960205,3,1
1312471802.73676014,47.37624359,8.55021954,538.71398926,3,1
1312471802.79245210,47.37624359,8.55021954,538.63195801,3,1
1312471802.83553076,47.37624741,8.55021763,538.49273682,3,1
1312471802.89638114,47.37624741,8.55021763,538.42706299,3,1
1312471802.93529987,47.37624741,8.55021763,538.32843018,3,1
1312471802.98434305,47.37624741,8.55021763,538.26269531,3,1
1312471803.03635478,47.37624741,8.55021763,538.18041992,3,1
1312471803.09529567,47.37624741,8.55021763,538.08355713,3,1
1312471803.13708472,47.37624741,8.55021667,537.98480225,3,1
1312471803.18430734,47.37624741,8.55021667,537.91900635,3,1
1312471803.23529935,47.37624741,8.55021667,537.83666992,3,1
1312471803.28508520,47.37624741,8.55021667,537.75427246,4,1
1312471803.34390354,47.37624741,8.55021572,537.68182373,4,1
1312471803.38732958,47.37624741,8.55021572,537.58300781,4,1
1312471803.44332433,47.37624741,8.55021477,537.51708984,4,1
1312471803.49631119,47.37624741,8.55021477,537.41821289,4,1
1312471803.54444003,47.37624741,8.55021477,537.33581543,4,1
1312471803.59641933,47.37624359,8.55021477,537.29479980,4,1
1312471803.64476275,47.37624359,8.55021477,537.21252441,4,1
1312471803.68741584,47.37624359,8.55021477,537.13024902,4,1
1312471803.73627734,47.37624359,8.55021477,537.06439209,4,1
1312471803.79629827,47.37624359,8.55021477,536.98205566,4,1
1312471803.84333968,47.37624359,8.55021381,536.94372559,4,1
1312471803.88732028,47.37624359,8.55021381,536.86163330,4,1
1312471803.94333410,47.37624359,8.55021381,536.79589844,4,1
1312471803.99635315,47.37624359,8.55021381,536.69726562,4,1
1312471804.04626894,47.37624359,8.55021381,536.61505127,4,1
1312471804.09541035,47.37624359,8.55021381,536.62329102,4,1
1312471804.14369965,47.37624359,8.55021381,536.54144287,4,1
1312471804.19540501,47.37624359,8.55021381,536.45953369,4,1
1312471804.24486709,47.37624359,8.55021381,536.37756348,4,1
1312471804.29529548,47.37624359,8.55021381,536.29559326,4,1
1312471804.34339833,47.37624359,8.55021381,536.30328369,4,1
1312471804.39532614,47.37624359,8.55021381,536.22161865,4,1
1312471804.44329429,47.37624359,8.55021381,536.13989258,4,1
1312471804.49541450,47.37624359,8.55021381,536.05810547,4,1
1312471804.54340792,47.37624359,8.55021286,535.97631836,4,1
1312471804.59540963,47.37624359,8.55021381,536.00164795,4,1
1312471804.64430189,47.37624359,8.55021381,535.92022705,4,1
1312471804.69532537,47.37624359,8.55021286,535.83880615,4,1
1312471804.74348927,47.37624359,8.55021286,535.75726318,4,1
1312471804.79635429,47.37624359,8.55021286,535.67572021,4,1
1312471804.84327888,47.37624359,8.55021191,535.70263672,4,1
1312471804.89645386,47.37624359,8.55021191,535.62145996,4,1
1312471804.94427562,47.37624359,8.55021191,535.54022217,4,1
1312471804.99641109,47.37624359,8.55021191,535.45892334,4,1
1312471805.04343629,47.37624359,8.55021191,535.37762451,4,1
1312471805.09530234,47.37624359,8.55021191,535.39880371,4,1
1312471805.14439034,47.37624359,8.55021191,535.31781006,4,1
1312471805.19533038,47.37624359,8.55021191,535.23675537,4,1
1312471805.24335098,47.37624359,8.55021095,535.15576172,4,1
1312471805.29643989,47.37624359,8.55021095,535.07464600,4,1
1312471805.34343553,47.37624359,8.55021191,535.10156250,4,1
1312471805.39542460,47.37624359,8.55021191,535.02087402,4,1
1312471805.44327760,47.37624359,8.55021191,534.94012451,4,1
1312471805.49531531,47.37624359,8.55021095,534.85937500,4,1
1312471805.54439402,47.37624359,8.55021095,534.77850342,4,1
1312471805.59628892,47.37624359,8.55021095,534.81787109,4,1
1312471805.64429641,47.37624359,8.55021095,534.73754883,4,1
1312471805.69631839,47.37624359,8.55021095,534.65710449,4,1
1312471805.74536657,47.37624359,8.55021095,534.57666016,4,1
1312471805.79636526,47.37624359,8.55021095,534.49621582,4,1
1312471805.84430838,47.37624359,8.55021095,534.54217529,4,1
1312471805.89633441,47.37624359,8.55021095,534.46209717,4,1
1312471805.94328141,47.37624359,8.55021095,534.38208008,4,1
1312471805.99532986,47.37624359,8.55021095,534.30200195,4,1
1312471806.04436016,47.37624359,8.55021095,534.22192383,4,1
1312471806.09642291,47.37624359,8.55021095,534.27392578,4,1
1312471806.14335990,47.37624359,8.55021095,534.19427490,4,1
1312471806.19643164,47.37624359,8.55021095,534.11456299,4,1
1312471806.24432731,47.37624359,8.55021095,534.03485107,4,1
1312471806.29627585,47.37624359,8.55021095,533.95507812,4,1
1312471806.34429979,47.37624359,8.55021095,534.01324463,4,1
1312471806.39528298,47.37624359,8.55021095,533.93395996,4,1
1312471806.44333100,47.37624359,8.55021095,533.85467529,4,1
1312471806.49643397,47.37624359,8.55021095,533.77526855,4,1
1312471806.54394341,47.37624359,8.55021095,533.69592285,4,1
1312471806.59641933,47.37624359,8.55021095,533.75994873,4,1
1312471806.64330554,47.37624359,8.55021095,533.68109131,4,1
1312471806.69528842,47.37624359,8.55021095,533.60217285,4,1
1312471806.74340010,47.37624359,8.55021095,533.52325439,4,1
1312471806.79532576,47.37624359,8.55021095,533.44427490,4,1
1312471806.84434462,47.37624359,8.55021191,533.51104736,4,1
1312471806.89641929,47.37624359,8.55021191,533.43261719,4,1
1312471806.94441891,47.37624359,8.55021191,533.35412598,4,1
1312471806.99642158,47.37624359,8.55021191,533.27563477,4,1
1312471807.04431200,47.37624359,8.55021191,533.19708252,4,1
1312471807.09630799,47.37624359,8.55021191,533.25000000,4,1
1312471807.14382696,47.37624359,8.55021191,533.17187500,4,1
1312471807.19555330,47.37624359,8.55021191,533.09375000,4,1
1312471807.24331641,47.37624359,8.55021191,533.01556396,4,1
1312471807.29540277,47.37624359,8.55021191,532.93737793,4,1
1312471807.34441495,47.37624359,8.55021095,532.99139404,4,1
1312471807.39630413,47.37624359,8.55021095,532.91357422,4,1
1312471807.44335747,47.37624359,8.55021095,532.83575439,4,1
